Regional Weather Roundup
Issued by NWS Bismarck, ND

Home | Current Version | Previous Version | Text Only | Print | Product List | Glossary On
Versions: 1 2 3 4 5 6 7 8 9 10 11 12 13 14 15 16 17 18 19 20 21 22 23 24 25 26 27 28 29 30 31 32 33 34 35 36 37 38 39 40 41 42 43 44 45 46 47 48 49 50
000
ASUS43 KBIS 310359
RWRBIS

NWR BROADCAST TEXT
NATIONAL WEATHER SERVICE BISMARCK ND
1100 PM CDT WED JUL 30 2014

NOTE: "FAIR" INDICATES FEW OR NO CLOUDS BELOW 12,000 FEET WITH NO
SIGNIFICANT WEATHER AND/OR OBSTRUCTIONS TO VISIBILITY.


CITY           SKY/WX    TMP DP  RH WIND       PRES   REMARKS
WILLISTON      CLEAR     69  51  52 E5        30.12S
MINOT          CLEAR     66  56  70 SW6       30.11R
MINOT AFB      NOT AVBL
BISMARCK       PTCLDY    65  57  75 CALM      30.11R
DICKINSON      NOT AVBL
GARRISON         N/A     62  59  90 N6        30.12R
HETTINGER ARPT CLEAR     60  52  74 NW3       30.16R
JAMESTOWN      NOT AVBL
CARRINGTON     FAIR      63  61  94 CALM      30.11S
CROSBY         FAIR      63  57  82 S7        30.11F
HARVEY         FAIR      64  63  94 CALM      30.10S
HAZEN          FAIR      57  55  94 SE3       30.13R
LINTON         FAIR      66  57  72 SE5       30.11S
MANDAN         CLOUDY    68  57  68 SE5       30.13R
RUGBY          FAIR      61  57  88 CALM      30.09S
TIOGA          FAIR      57  57 100 SE7       30.16F
WATFORD CITY   FAIR      64  55  72 SE9       30.12R
$$

CITY           SKY/WX    TMP DP  RH WIND       PRES   REMARKS
GRAND FORKS    CLEAR     62  58  86 W3        30.04S
GRAND FORKS AF NOT AVBL
DEVILS LAKE    CLEAR     66  57  72 CALM      30.07S
FARGO          CLEAR     66  57  72 CALM      30.05R
CAVALIER       FAIR      64  59  82 CALM      30.04S
GWINNER        CLEAR     63  57  82 W6        30.09S
LANGDON        FAIR      59  57  94 W5        30.08S
$$

CITY           SKY/WX    TMP DP  RH WIND       PRES   REMARKS
ABERDEEN       CLOUDY    64  57  78 CALM      30.10R
MOBRIDGE         N/A     70  58  65 E9        30.09R
RAPID CITY     MOCLDY    65  50  58 NW10      30.17R
GLASGOW        PTCLDY    74  50  42 SE12      30.05S
SIDNEY         CLEAR     70  48  46 CALM      30.13R
WOLF POINT     PTCLDY    77  49  37 SE5       30.08R
GLENDIVE       CLEAR     73  48  40 E6        30.15S
MILES CITY     CLEAR     77  45  32 SE5       30.13R
BAKER          CLEAR     64  51  62 SE3       30.18R
$$

CITY           SKY/WX    TMP DP  RH WIND       PRES   REMARKS
BILLINGS       PTCLDY    80  38  22 SE8       30.15R
GREAT FALLS    CLOUDY    75  40  28 SW8       30.11R
$$



USA.gov is the U.S. government's official web portal to all federal, state and local government web resources and services.